Probability
0 0 0 0 0 0 0 0 0 0 0 0 0 0 0 0 0 0 0 0 0 0 0 0 0 0 0 0 0 0 3 3 0 0 0 0 3 0 0 0 0 0 0
0 0 0 0 0 0 0 0 0 0 0 0 0 0 0 0 0 0 0 0 0 0 0 0 0 0 3 0 0 3 3 3 3 0 0 0 0 0 0 0 0 0 0
0 0 0 0 0 0 0 0 0 0 0 0 0 0 0 0 0 0 0 0 0 0 0 0 0 0 0 3 0 0 3 3 3 3 0 0 0 0 0 0 0 3 0
0 0 0 0 0 0 0 0 0 0 0 0 0 0 0 0 0 0 0 0 0 0 0 0 0 0 3 3 3 0 0 0 0 0 0 0 0 0 0 0 0 0 3
0 0 0 0 0 0 0 0 0 0 0 0 0 0 0 0 0 0 0 0 0 0 0 0 0 0 0 0 0 0 0 0 0 0 0 0 0 0 0 0 0 0 0
0 0 0 0 0 0 0 0 0 0 0 0 0 0 0 0 0 0 0 0 0 0 0 0 0 0 0 0 0 0 0 0 0 0 0 0 0 0 0 0 3 3 0
0 0 0 0 0 0 0 0 0 0 0 0 0 0 0 0 0 0 0 0 0 0 0 0 0 0 0 0 0 0 0 0 0 0 0 0 0 0 0 0 3 3 0
0 0 0 0 0 0 0 0 0 0 0 0 0 0 0 0 0 0 0 0 0 0 0 0 0 0 0 0 0 0 0 0 0 0 0 0 0 0 0 0 0 3 0
0 0 0 0 0 0 0 0 0 0 0 0 0 0 0 0 0 0 0 0 0 0 0 0 0 0 0 0 0 0 0 0 0 0 0 0 0 0 0 0 0 3 0
0 0 0 0 0 0 0 0 0 0 0 0 0 0 0 0 0 0 0 0 0 0 0 0 0 0 0 0 0 0 0 0 0 0 0 0 0 0 0 0 0 0 0
0 0 0 0 0 0 0 0 0 0 0 0 0 0 0 0 0 0 0 0 0 0 0 0 0 0 0 0 0 0 0 0 0 0 0 0 0 0 0 0 0 0 0
0 0 0 0 0 0 0 0 0 0 0 0 0 0 0 0 0 0 0 0 0 0 0 0 0 0 0 0 0 0 0 0 0 0 0 0 0 0 0 0 0 0 0
0 0 0 0 0 0 0 0 0 0 0 0 0 0 0 0 0 0 0 0 0 0 0 0 0 0 0 0 0 0 0 0 0 0 0 0 0 0 0 0 0 0 0
0 0 0 0 0 0 0 0 0 0 0 0 0 0 0 0 0 0 0 0 0 0 0 0 0 0 0 0 0 0 0 0 0 0 0 0 0 0 0 0 0 0 0
0 0 0 0 0 0 0 0 0 0 0 0 0 0 0 0 0 0 0 0 0 0 0 0 0 0 0 0 0 0 0 0 0 0 0 0 0 0 0 0 0 0 0
0 0 0 0 0 0 0 0 0 0 0 0 0 0 0 0 0 0 0 0 0 0 0 0 0 0 0 0 0 0 0 0 0 0 0 0 0 0 0 0 0 0 0
0 0 0 0 0 0 0 0 0 0 0 0 0 0 0 0 0 0 0 0 0 0 0 0 0 0 0 0 0 0 0 0 0 0 0 0 0 0 0 0 0 0 0
0 0 0 0 0 0 0 0 0 0 0 0 0 0 0 0 0 0 0 0 0 0 0 0 0 0 0 0 0 0 0 0 0 0 0 0 0 0 0 0 0 0 0
0 0 0 0 0 0 0 0 0 0 0 0 0 0 0 0 0 0 0 0 0 0 0 0 0 0 0 0 0 0 0 0 0 0 0 0 0 0 0 0 0 0 0
0 0 0 0 0 0 0 0 0 0 0 0 0 0 0 0 0 0 0 0 0 0 0 0 0 0 0 0 0 0 0 0 0 0 0 0 0 0 0 0 0 0 0
0 0 0 0 0 0 0 0 0 0 0 0 0 0 0 0 0 0 0 0 0 0 0 0 0 0 0 0 0 0 0 0 0 0 0 0 0 0 0 0 0 0 0
0 0 0 0 0 0 0 0 0 0 0 0 0 0 0 0 0 0 0 0 0 0 0 0 0 0 0 0 0 0 0 0 0 0 0 0 0 0 0 0 0 0 0
0 0 0 0 0 0 0 0 0 0 0 0 0 0 0 0 0 0 0 0 0 0 0 0 0 0 0 0 0 0 0 0 0 0 0 0 0 0 0 0 0 0 0
0 0 0 0 0 0 0 0 0 0 0 0 0 0 0 0 0 0 0 0 0 0 0 0 0 0 0 0 0 0 0 0 0 0 0 0 0 0 0 0 0 0 0
0 0 0 0 0 0 0 0 0 0 0 0 0 0 0 0 0 0 0 0 0 0 0 0 0 0 0 0 0 0 0 0 0 0 0 0 0 0 0 0 0 0 0
0 0 0 0 0 0 0 0 0 0 0 0 0 0 0 0 0 0 0 0 0 0 0 0 0 0 0 0 0 0 0 0 0 0 0 0 0 0 0 0 0 0 0
Height
5820 5821 5822 5822 5822 5822 5822 5821 5821 5822 5822 5821 5820 5820 5819 5818 5818 5817 5816 5815 5815 5814 5813 5812 5811 5809 5808 5807 5806 5805 5803 5802 5801 5800 5799 5798 5797 5796 5795 5794 5794 5793 5792
5814 5815 5816 5816 5816 5816 5816 5816 5816 5816 5816 5816 5815 5814 5814 5813 5812 5811 5810 5809 5809 5808 5807 5805 5804 5803 5802 5801 5799 5798 5797 5796 5794 5793 5792 5791 5790 5789 5788 5787 5786 5785 5784
5808 5810 5810 5811 5811 5811 5811 5811 5811 5810 5810 5810 5809 5809 5808 5807 5806 5805 5804 5803 5802 5802 5800 5799 5798 5797 5795 5794 5793 5792 5790 5789 5788 5786 5785 5784 5782 5781 5780 5779 5778 5777 5776
5802 5804 5805 5805 5805 5805 5805 5805 5805 5805 5804 5804 5803 5802 5801 5800 5799 5798 5798 5797 5796 5795 5794 5793 5791 5790 5789 5788 5786 5785 5783 5782 5781 5779 5778 5776 5775 5773 5772 5771 5769 5768 5767
5796 5797 5798 5799 5799 5799 5799 5799 5799 5798 5798 5797 5797 5796 5795 5794 5793 5792 5791 5790 5789 5788 5787 5786 5784 5783 5782 5780 5779 5777 5776 5775 5773 5772 5770 5768 5767 5765 5764 5762 5761 5760 5759
5790 5791 5791 5792 5792 5792 5792 5792 5792 5791 5791 5790 5790 5789 5788 5787 5786 5785 5784 5783 5782 5781 5780 5778 5777 5776 5774 5773 5771 5770 5768 5767 5765 5764 5762 5760 5758 5757 5755 5754 5752 5751 5750
5783 5784 5785 5785 5786 5786 5785 5785 5784 5784 5784 5783 5783 5782 5781 5780 5779 5778 5777 5776 5775 5774 5772 5771 5770 5768 5767 5765 5763 5762 5760 5759 5757 5755 5754 5752 5750 5748 5746 5744 5743 5741 5740
5776 5777 5778 5778 5778 5778 5778 5777 5777 5776 5776 5775 5775 5774 5774 5773 5772 5770 5769 5768 5767 5766 5764 5763 5762 5760 5759 5757 5755 5753 5752 5750 5748 5746 5745 5743 5741 5739 5737 5735 5733 5732 5730
5769 5770 5770 5771 5770 5771 5770 5770 5769 5769 5768 5767 5767 5766 5766 5765 5764 5763 5762 5760 5759 5758 5756 5755 5753 5752 5750 5748 5747 5745 5743 5741 5739 5737 5735 5733 5731 5729 5727 5725 5723 5722 5720
5762 5763 5763 5763 5763 5763 5762 5762 5761 5761 5760 5760 5759 5758 5757 5756 5756 5755 5754 5752 5751 5749 5748 5746 5745 5743 5741 5740 5738 5736 5734 5731 5729 5727 5725 5723 5721 5719 5717 5715 5713 5711 5710
5754 5754 5755 5755 5754 5754 5754 5754 5753 5753 5752 5751 5750 5749 5749 5748 5747 5746 5746 5744 5742 5740 5739 5737 5735 5733 5732 5730 5728 5726 5724 5722 5719 5717 5715 5712 5710 5708 5706 5704 5702 5700 5699
5746 5746 5747 5746 5746 5746 5746 5745 5745 5744 5743 5743 5742 5740 5739 5739 5737 5736 5736 5735 5733 5731 5729 5727 5725 5723 5722 5720 5718 5715 5713 5711 5708 5706 5704 5701 5699 5697 5695 5693 5691 5689 5688
5738 5738 5738 5738 5737 5737 5736 5736 5735 5735 5734 5733 5732 5731 5730 5728 5727 5726 5725 5724 5723 5722 5719 5717 5715 5713 5711 5709 5707 5704 5702 5699 5697 5694 5692 5689 5687 5685 5683 5681 5679 5678 5676
5729 5729 5729 5729 5728 5727 5727 5726 5726 5725 5724 5723 5722 5721 5720 5718 5717 5715 5714 5713 5712 5711 5709 5707 5704 5701 5699 5697 5695 5692 5690 5687 5685 5682 5679 5677 5675 5673 5671 5669 5667 5665 5664
5720 5719 5719 5719 5718 5718 5717 5717 5716 5715 5714 5713 5712 5710 5709 5707 5706 5704 5702 5701 5700 5699 5698 5696 5693 5690 5687 5685 5682 5680 5677 5674 5672 5669 5667 5664 5662 5660 5658 5656 5655 5653 5652
5710 5709 5709 5708 5708 5707 5707 5706 5705 5704 5703 5702 5700 5699 5698 5696 5695 5693 5691 5689 5687 5685 5684 5684 5681 5678 5675 5672 5670 5667 5664 5661 5659 5656 5654 5651 5649 5647 5645 5643 5642 5640 5638
5699 5699 5698 5698 5697 5697 5696 5695 5694 5693 5692 5691 5689 5688 5686 5684 5683 5681 5679 5677 5675 5672 5671 5670 5667 5665 5662 5659 5657 5654 5651 5648 5646 5643 5641 5638 5636 5634 5632 5630 5628 5626 5625
5689 5688 5687 5687 5686 5685 5684 5683 5682 5681 5680 5679 5677 5675 5674 5672 5670 5668 5666 5664 5662 5659 5657 5656 5654 5651 5649 5646 5643 5640 5637 5635 5632 5630 5627 5625 5622 5620 5618 5616 5614 5613 5611
5678 5677 5676 5675 5674 5673 5672 5671 5670 5669 5668 5666 5664 5663 5661 5659 5657 5655 5653 5650 5648 5646 5644 5642 5640 5638 5635 5632 5629 5627 5624 5621 5618 5616 5613 5611 5609 5606 5604 5602 5600 5599 5597
5666 5665 5664 5663 5662 5661 5659 5658 5657 5656 5655 5653 5652 5650 5648 5645 5643 5641 5639 5637 5634 5632 5630 5628 5626 5623 5621 5618 5615 5613 5610 5607 5605 5602 5599 5597 5594 5592 5590 5588 5586 5584 5583
5655 5653 5652 5651 5649 5648 5647 5645 5644 5643 5641 5640 5638 5636 5633 5631 5629 5627 5624 5622 5620 5618 5616 5614 5612 5609 5607 5604 5602 5599 5596 5594 5591 5588 5586 5583 5580 5578 5575 5573 5571 5570 5568
5642 5641 5640 5638 5636 5635 5633 5631 5630 5628 5627 5625 5623 5621 5619 5616 5614 5612 5610 5608 5606 5603 5601 5599 5597 5595 5592 5589 5587 5584 5582 5580 5578 5576 5572 5569 5566 5563 5561 5559 5557 5555 5554
5629 5628 5626 5625 5623 5621 5619 5617 5615 5613 5612 5610 5608 5606 5603 5601 5599 5597 5595 5592 5590 5588 5586 5584 5582 5580 5577 5575 5572 5570 5567 5565 5563 5560 5558 5556 5552 5550 5547 5544 5542 5541 5540
5615 5614 5612 5610 5609 5607 5604 5602 5600 5598 5597 5595 5592 5590 5587 5585 5583 5581 5579 5577 5575 5573 5571 5569 5567 5565 5562 5560 5557 5555 5552 5550 5548 5545 5542 5542 5539 5536 5533 5530 5528 5527 5525
5601 5599 5598 5596 5594 5592 5589 5587 5584 5583 5581 5579 5576 5574 5571 5569 5567 5564 5563 5562 5560 5558 5555 5553 5551 5549 5547 5544 5542 5540 5538 5535 5534 5532 5528 5526 5525 5522 5520 5517 5514 5512 5510
5586 5584 5583 5581 5579 5577 5574 5572 5569 5567 5566 5563 5561 5558 5555 5553 5551 5548 5547 5545 5544 5542 5540 5538 5536 5534 5532 5530 5527 5525 5523 5521 5519 5518 5515 5512 5510 5507 5507 5505 5501 5498 5496
Wind_Speed
25 24 24 23 23 23 24 23 24 24 24 24 25 25 25 26 26 27 27 27 27 28 28 28 29 29 29 29 29 29 29 29 29 30 30 31 32 32 32 32 33 33 33
27 26 25 25 24 24 25 25 25 25 25 25 26 26 27 27 27 28 28 28 28 28 29 29 30 29 29 29 29 29 29 30 30 31 31 32 32 32 32 33 33 34 34
28 26 26 26 26 26 26 26 26 26 26 26 27 28 28 29 29 30 30 30 29 29 30 30 30 30 30 30 30 30 31 31 31 31 31 32 33 33 34 34 34 35 35
28 28 27 26 26 26 26 27 27 27 27 28 29 29 30 30 31 31 31 31 31 31 31 31 31 31 31 31 31 31 32 32 32 32 32 33 34 34 35 35 34 35 35
29 29 28 27 28 28 28 27 27 28 29 30 30 31 31 32 32 32 32 32 32 32 32 32 32 32 32 32 32 33 33 33 33 33 33 33 34 34 35 35 35 35 35
30 30 29 29 29 29 29 29 30 30 30 31 31 31 32 32 32 33 33 33 33 33 33 33 32 33 33 33 33 33 34 34 34 34 34 34 34 35 35 36 37 37 37
30 30 30 29 30 31 30 31 32 32 32 32 32 32 33 33 33 34 33 34 34 34 34 33 33 33 33 33 34 34 35 35 35 36 36 36 36 37 37 37 38 38 37
31 32 31 31 31 32 32 32 33 33 33 33 33 33 33 33 33 34 33 33 34 34 33 33 33 33 33 33 34 34 35 36 37 37 37 38 38 38 38 38 38 39 39
32 32 32 32 33 33 34 33 33 33 33 33 33 34 34 34 34 34 34 34 34 34 34 34 35 35 35 35 35 36 36 37 37 38 39 39 40 40 40 40 40 39 39
33 34 34 34 35 35 35 35 34 34 34 34 35 35 35 35 35 35 35 35 36 36 36 36 37 37 37 37 37 37 38 38 39 40 40 41 41 42 42 42 41 40 40
35 35 35 35 36 37 37 36 36 35 35 36 36 36 37 37 37 37 36 36 37 37 37 38 38 39 39 39 39 39 40 41 41 42 42 42 43 42 42 42 42 41 40
35 36 36 37 37 38 38 37 36 36 36 37 37 38 38 39 39 38 37 37 38 39 39 39 40 40 40 40 40 41 41 42 42 43 44 43 43 43 42 42 42 41 41
36 37 37 37 37 38 38 38 37 38 38 38 39 39 40 40 40 40 40 39 40 40 41 41 41 41 41 42 42 43 44 44 45 45 45 44 44 43 43 43 43 42 42
36 37 38 37 37 38 39 39 39 39 39 39 40 40 41 41 42 42 42 41 41 41 42 42 42 43 43 44 45 45 46 46 46 46 46 45 45 44 43 43 42 43 44
39 40 40 39 39 38 39 40 40 40 40 40 41 41 42 43 44 44 44 44 44 43 43 43 43 44 45 45 46 46 46 46 47 47 46 46 46 45 44 43 43 44 45
41 41 41 41 40 40 40 40 41 41 41 42 42 43 43 44 45 45 46 46 46 46 46 45 45 45 45 46 46 47 47 47 47 47 47 47 46 46 45 44 44 45 45
41 41 41 41 41 42 42 41 42 42 43 43 44 44 45 46 46 47 47 47 47 48 47 46 46 47 47 47 47 47 47 47 47 47 47 47 47 47 46 46 45 45 45
41 41 42 42 43 43 43 43 44 44 45 45 45 45 46 46 47 47 48 48 48 49 49 48 48 48 48 48 48 47 47 48 48 48 48 48 48 48 48 47 46 46 46
42 43 43 43 43 44 45 45 45 46 47 47 47 47 47 47 48 48 49 49 50 50 50 50 50 50 49 48 48 48 48 48 48 48 48 48 49 49 48 47 46 46 46
43 44 43 44 45 46 46 47 47 48 48 49 49 49 49 50 50 50 50 50 50 51 51 51 50 50 49 49 49 49 48 49 48 48 49 49 49 48 48 48 47 47 47
44 44 45 45 46 47 48 48 49 49 50 50 51 52 53 53 52 52 51 51 51 51 51 51 50 50 50 49 49 50 49 49 48 49 49 49 48 47 48 48 48 48 47
45 46 46 47 47 48 48 49 50 51 52 52 53 54 54 54 54 53 52 52 52 52 52 51 51 51 50 51 51 51 50 49 48 49 49 48 48 47 47 47 47 47 47
47 47 48 48 48 49 49 50 51 52 53 53 53 54 54 54 54 53 53 53 52 52 52 52 52 51 51 51 51 51 50 50 49 49 48 47 47 47 46 46 46 46 46
48 49 49 49 50 50 50 51 52 53 53 54 54 54 54 53 53 53 53 52 52 52 52 52 52 51 51 51 50 50 50 49 49 48 48 47 46 46 46 45 45 45 46
50 50 50 51 51 51 52 52 53 53 53 53 53 53 53 53 53 53 53 53 53 53 53 52 52 51 50 50 50 50 50 49 48 47 47 47 46 45 45 44 45 45 45
51 51 51 52 52 52 53 54 54 53 53 53 53 53 53 53 54 54 54 54 54 53 53 52 52 51 51 50 51 51 50 50 49 47 46 47 46 45 44 44 45 45 45
Wind_Direction
255 258 261 265 267 270 272 273 274 277 279 279 279 279 280 280 280 281 282 283 285 285 285 285 287 287 287 287 287 287 286 286 286 286 285 284 284 283 282 282 282 282 280
256 259 261 266 268 270 272 272 274 276 278 279 280 279 281 282 282 281 282 283 285 285 285 287 288 287 287 287 287 287 287 287 287 286 285 285 285 284 283 283 283 281 280
257 260 263 266 269 272 273 274 276 278 278 278 280 280 281 282 283 283 282 282 284 285 286 287 287 287 287 287 287 286 287 287 287 287 287 285 285 284 284 284 283 281 280
257 260 264 267 269 272 274 275 276 277 278 279 280 281 281 282 283 283 282 282 284 285 287 287 287 286 286 287 287 287 287 287 287 287 287 287 286 284 284 284 284 283 281
259 261 263 266 269 271 273 274 275 277 278 279 280 281 281 282 283 283 283 283 284 284 286 286 287 286 287 287 288 287 287 287 287 288 288 288 287 287 286 285 284 283 282
260 262 264 265 269 271 273 274 274 275 277 279 280 281 282 282 283 284 284 283 284 285 285 286 286 286 287 287 287 287 287 287 287 287 288 288 288 288 287 285 285 284 283
261 264 265 266 269 272 274 275 275 276 277 279 279 281 282 283 284 284 284 284 284 285 285 285 285 286 287 287 288 288 288 287 287 287 287 288 289 288 287 286 285 285 284
261 264 267 267 268 271 274 275 275 276 277 279 280 281 282 283 283 284 285 285 285 285 285 284 284 286 287 287 287 287 288 288 288 287 287 288 288 288 288 287 287 286 284
263 267 270 270 270 272 275 276 277 277 278 279 280 281 281 281 282 284 285 285 285 285 285 284 285 286 286 287 287 287 288 288 288 289 288 288 289 288 288 287 287 286 284
264 268 270 272 272 273 275 276 276 277 278 279 280 281 281 282 282 283 283 285 285 285 285 285 285 286 286 287 287 288 288 288 289 289 289 289 289 288 286 286 285 284 282
266 268 271 272 273 274 276 276 277 277 277 278 280 280 281 282 283 283 283 284 285 286 285 285 286 286 286 287 288 288 289 289 289 289 289 289 288 288 286 285 284 283 281
267 269 271 273 274 275 275 276 278 278 279 280 280 281 281 282 283 283 283 283 284 285 286 286 286 287 287 288 288 288 289 288 289 289 289 289 289 288 287 285 283 282 280
271 272 272 272 273 274 274 275 278 279 280 280 281 281 282 282 283 283 284 283 283 284 285 287 287 287 287 287 287 288 288 287 288 288 289 288 288 288 286 285 283 281 279
272 273 274 274 275 274 274 276 278 280 281 281 280 281 282 282 283 284 284 284 284 284 285 286 286 287 287 287 287 287 287 287 287 287 288 287 287 287 286 284 282 280 279
272 275 276 276 276 276 277 278 279 281 282 282 282 282 283 283 284 284 284 285 285 284 285 285 286 286 287 287 287 288 288 287 287 287 287 287 286 286 285 284 282 281 280
274 276 277 278 277 277 279 279 280 280 282 282 283 283 283 284 284 284 284 284 284 284 284 285 286 286 286 287 287 287 288 287 287 287 287 286 286 285 285 284 283 281 280
276 277 277 277 277 278 279 279 280 281 282 282 282 283 284 284 284 284 284 284 283 284 284 284 285 286 286 287 287 287 287 287 287 286 286 286 286 285 285 284 283 282 280
276 277 278 277 277 278 279 280 281 282 283 283 283 284 284 284 283 283 283 283 283 283 284 284 285 286 286 287 287 287 287 287 287 287 286 286 285 285 285 284 282 281 280
278 278 278 278 278 279 279 280 282 282 282 282 283 283 284 284 283 282 282 282 282 283 283 283 284 285 286 286 286 287 287 287 287 287 287 286 286 285 285 284 282 280 279
279 278 278 278 278 279 280 280 281 281 282 282 282 283 283 284 284 283 283 282 282 282 283 284 284 285 285 285 286 287 287 287 287 288 288 287 286 284 283 282 281 280 279
279 279 278 278 278 278 279 279 280 280 281 282 283 283 284 284 283 283 283 283 283 283 284 284 284 285 285 286 286 286 287 287 287 287 288 287 286 284 283 282 281 280 279
279 279 279 279 279 279 278 278 279 279 280 282 283 283 283 283 283 284 283 283 283 283 284 284 284 285 285 285 285 286 287 286 286 286 286 286 285 285 284 282 281 280 280
279 279 280 280 280 280 280 279 280 280 281 282 283 283 283 283 283 283 282 282 282 283 283 284 284 284 284 285 285 286 285 285 286 286 285 286 285 285 284 283 281 281 280
278 279 279 280 280 281 281 282 282 282 282 282 283 283 283 283 282 282 282 282 282 282 282 283 283 284 284 285 285 285 285 285 286 285 285 286 285 285 284 283 282 282 282
279 279 279 279 280 280 282 283 283 284 284 283 284 284 283 282 282 281 281 281 281 281 281 282 283 283 283 284 284 284 285 285 286 286 286 286 286 285 284 284 284 283 283
279 279 279 279 280 281 282 283 283 284 284 284 284 284 283 282 282 281 281 281 281 280 280 281 282 282 283 283 284 284 284 285 285 285 285 286 286 286 285 285 284 284 284